Location: ?????????
(41.1143°N, 22.7905°E)
Time: 15:33:25
(UTC+00:00)

Helios 1A Rocket - Pass Details

Date: 13 December 2025
Orbit: 433 x 443 km, 98.3° (Epoch: 16 January)

Event Time Altitude Azimuth Distance (km) Brightness Sun altitude
Rises 05:02:41 0° 206° (SSW) 2,401 6.1 -8.0°
Reaches altitude 10° 05:05:27 10° 233° (SW) 1,543 4.8 -7.5°
Drops below altitude 10° 05:09:04 10° 299° (WNW) 1,556 4.4 -6.9°
Enters shadow 05:09:19 - 303° (WNW) 1,617 4.5 -6.9°
Exits shadow 05:34:00 -49° 6° (N) 10,269 9.1 -2.7°
